timestamp,surface_pressure_avg,surface_temp_avg,battery_voltage,lat,long
2023-02-05 00:19:01+00:00,326.3829,1.07,12.57,47.84626,-54.09684
2023-02-05 00:29:01+00:00,317.0612,1.1,12.57,47.84626,-54.09684
2023-02-05 00:39:01+00:00,310.9612,1.1,12.57,47.84626,-54.09684
2023-02-05 00:49:01+00:00,311.7813,1.1,12.57,47.84626,-54.09684
2023-02-05 00:59:01+00:00,309.3713,1.1,12.57,47.84626,-54.09684
2023-02-05 01:09:01+00:00,299.7297,1.06,12.57,47.84626,-54.09684
2023-02-05 01:19:01+00:00,293.8331,1.0,12.57,47.84626,-54.09684
2023-02-05 01:29:01+00:00,295.0696,0.96,12.57,47.84626,-54.09684
2023-02-05 01:39:01+00:00,294.063,0.94,12.57,47.84626,-54.09684
2023-02-05 01:49:01+00:00,281.4847,0.88,12.57,47.84626,-54.09684
2023-02-05 01:59:01+00:00,275.748,0.83,12.57,47.84626,-54.09684
2023-02-05 02:09:01+00:00,276.0098,0.85,12.57,47.84626,-54.09684
2023-02-05 02:19:00+00:00,272.2448,0.8,12.57,47.84626,-54.09684
2023-02-05 02:29:00+00:00,262.7531,0.71,12.57,47.84626,-54.09684
2023-02-05 02:39:00+00:00,260.5247,0.7,12.57,47.84626,-54.09684
2023-02-05 02:49:00+00:00,260.0698,0.7,12.57,47.84626,-54.09684
2023-02-05 02:59:00+00:00,253.9481,0.7,12.57,47.84626,-54.09684
2023-02-05 03:09:00+00:00,243.9397,0.67,12.57,47.84626,-54.09684
2023-02-05 03:19:01+00:00,237.6914,0.6,12.57,47.84626,-54.09684
2023-02-05 03:29:01+00:00,231.0065,0.6,12.57,47.84626,-54.09684
2023-02-05 03:39:01+00:00,224.3514,0.6,12.57,47.84626,-54.09684
2023-02-05 03:49:01+00:00,219.4081,0.6,12.57,47.84626,-54.09684
2023-02-05 03:59:01+00:00,214.6998,0.6,12.57,47.84626,-54.09684
2023-02-05 04:09:01+00:00,207.2881,0.59,12.57,47.84626,-54.09684
2023-02-05 04:19:00+00:00,200.8098,0.54,12.57,47.84626,-54.09684
2023-02-05 04:29:00+00:00,204.3031,0.59,12.57,47.84626,-54.09684
2023-02-05 04:39:00+00:00,205.4265,0.6,12.57,47.84626,-54.09684
2023-02-05 04:49:00+00:00,197.5348,0.6,12.57,47.84626,-54.09684
2023-02-05 04:59:00+00:00,192.6765,0.6,12.57,47.84626,-54.09684
2023-02-05 05:09:00+00:00,190.7648,0.69,12.57,47.84626,-54.09684
2023-02-05 05:19:00+00:00,188.2382,0.78,12.57,47.84626,-54.09684
2023-02-05 05:29:00+00:00,186.4798,0.87,12.57,47.84626,-54.09684
2023-02-05 05:39:00+00:00,182.8831,0.9,12.57,47.84626,-54.09684
2023-02-05 05:49:00+00:00,181.2664,0.9,12.57,47.84626,-54.09684
2023-02-05 05:59:00+00:00,182.8581,0.9,12.57,47.84626,-54.09684
2023-02-05 06:09:00+00:00,182.6798,0.9,12.57,47.84626,-54.09684
2023-02-05 06:19:00+00:00,179.5182,0.9,12.57,47.84626,-54.09684
2023-02-05 06:29:00+00:00,182.9365,0.9,12.57,47.84626,-54.09684
2023-02-05 06:39:00+00:00,190.8281,0.98,12.57,47.84626,-54.09684
2023-02-05 06:49:00+00:00,194.2364,0.95,12.57,47.84626,-54.09684
2023-02-05 06:59:00+00:00,194.3431,0.9,12.57,47.84626,-54.09684
2023-02-05 07:09:00+00:00,197.2248,0.9,12.57,47.84626,-54.09684
2023-02-05 07:19:00+00:00,204.1664,0.9,12.57,47.84626,-54.09684
2023-02-05 07:29:00+00:00,207.0965,0.9,12.57,47.84626,-54.09684
2023-02-05 07:39:00+00:00,207.2348,0.89,12.57,47.84626,-54.09684
2023-02-05 07:49:00+00:00,212.3098,0.88,12.57,47.84626,-54.09684
2023-02-05 07:59:00+00:00,225.1265,0.88,12.57,47.84626,-54.09684
2023-02-05 08:09:00+00:00,223.8264,0.82,12.57,47.84626,-54.09684
2023-02-05 08:19:00+00:00,222.4881,0.8,12.57,47.84626,-54.09684
2023-02-05 08:29:00+00:00,236.7881,0.8,12.57,47.84626,-54.09684
2023-02-05 08:39:00+00:00,242.3298,0.8,12.57,47.84626,-54.09684
2023-02-05 08:49:00+00:00,240.0214,0.8,12.57,47.84626,-54.09684
2023-02-05 08:59:00+00:00,248.2381,0.78,12.57,47.84626,-54.09684
2023-02-05 09:09:00+00:00,256.5681,0.78,12.57,47.84626,-54.09684
2023-02-05 09:19:00+00:00,261.8964,0.74,12.57,47.84626,-54.09684
2023-02-05 09:29:00+00:00,271.5247,0.74,12.57,47.84626,-54.09684
2023-02-05 09:39:00+00:00,279.1764,0.66,12.57,47.84626,-54.09684
2023-02-05 09:49:00+00:00,286.9614,0.7,12.57,47.84626,-54.09684
2023-02-05 09:59:00+00:00,297.7547,0.5,12.57,47.84626,-54.09684
2023-02-05 10:09:00+00:00,308.4847,0.4,12.57,47.84626,-54.09684
2023-02-05 10:19:00+00:00,316.823,0.4,12.49,47.84626,-54.09684
2023-02-05 10:29:00+00:00,326.138,0.49,12.49,47.84626,-54.09684
2023-02-05 10:39:00+00:00,339.0379,0.5,12.49,47.84626,-54.09684
2023-02-05 10:49:00+00:00,344.9263,0.5,12.49,47.84626,-54.09684
2023-02-05 10:59:00+00:00,346.5613,0.41,12.49,47.84626,-54.09684
2023-02-05 11:09:00+00:00,355.2562,0.47,12.49,47.84626,-54.09684
2023-02-05 11:19:00+00:00,365.61300000000006,0.46,12.57,47.84626,-54.09684
2023-02-05 11:29:00+00:00,368.3645,0.4,12.57,47.84626,-54.09684
2023-02-05 11:39:00+00:00,371.8046,0.4,12.57,47.84626,-54.09684
2023-02-05 11:49:00+00:00,372.4796,0.46,12.57,47.84626,-54.09684
2023-02-05 11:59:00+00:00,378.7062,0.49,12.57,47.84626,-54.09684
2023-02-05 12:09:00+00:00,381.9046,0.46,12.57,47.84626,-54.09684
2023-02-05 12:19:00+00:00,379.1196,0.4,14.64,47.84626,-54.09684
2023-02-05 12:29:00+00:00,378.0679,0.4,14.64,47.84626,-54.09684
2023-02-05 12:39:00+00:00,380.3213,0.4,14.64,47.84626,-54.09684
2023-02-05 12:49:00+00:00,380.9662,0.44,14.64,47.84626,-54.09684
2023-02-05 12:59:00+00:00,373.7279,0.49,14.64,47.84626,-54.09684
2023-02-05 13:09:00+00:00,371.9646,0.5,14.64,47.84626,-54.09684
2023-02-05 13:19:00+00:00,374.5812,0.5,14.08,47.84626,-54.09684
2023-02-05 13:29:00+00:00,367.6362,0.51,14.08,47.84626,-54.09684
2023-02-05 13:39:00+00:00,363.8145,0.5,14.08,47.84626,-54.09684
2023-02-05 13:49:00+00:00,366.8363,0.5,14.08,47.84626,-54.09684
2023-02-05 13:59:00+00:00,362.1213,0.5,14.08,47.84626,-54.09684
2023-02-05 14:09:00+00:00,351.5712,0.5,14.08,47.84626,-54.09684
2023-02-05 14:19:00+00:00,351.288,0.51,15.83,47.84626,-54.09684
2023-02-05 14:29:00+00:00,350.853,0.5,15.83,47.84626,-54.09684
2023-02-05 14:39:00+00:00,338.0163,0.57,15.83,47.84626,-54.09684
2023-02-05 14:49:00+00:00,328.6046,0.7,15.83,47.84626,-54.09684
2023-02-05 14:59:00+00:00,329.9129,0.77,15.83,47.84626,-54.09684
2023-02-05 15:09:00+00:00,322.3913,0.74,15.83,47.84626,-54.09684
2023-02-05 15:19:00+00:00,306.808,0.8,15.83,47.84626,-54.09684
2023-02-05 15:29:00+00:00,305.188,0.9,15.83,47.84626,-54.09684
2023-02-05 15:39:00+00:00,301.138,0.9,15.83,47.84626,-54.09684
2023-02-05 15:49:00+00:00,287.063,0.8,15.83,47.84626,-54.09684
2023-02-05 15:59:00+00:00,278.5181,0.8,15.83,47.84626,-54.09684
2023-02-05 16:09:00+00:00,275.5581,0.8,15.83,47.84626,-54.09684
2023-02-05 16:19:00+00:00,269.1047,0.77,15.11,47.84626,-54.09684
2023-02-05 16:29:00+00:00,257.1114,0.71,15.11,47.84626,-54.09684
2023-02-05 16:39:00+00:00,252.7347,0.77,15.11,47.84626,-54.09684
2023-02-05 16:49:00+00:00,255.158,0.78,15.11,47.84626,-54.09684
2023-02-05 16:59:00+00:00,251.188,0.77,15.11,47.84626,-54.09684
2023-02-05 17:09:00+00:00,244.7348,0.74,15.11,47.84626,-54.09684
2023-02-05 17:19:00+00:00,241.8464,0.7,14.24,47.84626,-54.09684
2023-02-05 17:29:00+00:00,242.1631,0.72,14.24,47.84626,-54.09684
2023-02-05 17:39:00+00:00,242.7581,0.74,14.24,47.84626,-54.09684
2023-02-05 17:49:00+00:00,241.7014,0.76,14.24,47.84626,-54.09684
2023-02-05 17:59:00+00:00,239.8231,0.8,14.24,47.84626,-54.09684
2023-02-05 18:09:00+00:00,241.7581,0.86,14.24,47.84626,-54.09684
2023-02-05 18:19:00+00:00,246.9464,0.9,14.24,47.84626,-54.09684
2023-02-05 18:29:00+00:00,242.6564,0.9,14.24,47.84626,-54.09684
2023-02-05 18:39:00+00:00,236.4181,0.97,14.24,47.84626,-54.09684
2023-02-05 18:49:00+00:00,244.0464,1.0,14.24,47.84626,-54.09684
2023-02-05 18:59:00+00:00,252.5348,1.0,14.24,47.84626,-54.09684
2023-02-05 19:09:00+00:00,251.0264,1.01,14.24,47.84626,-54.09684
2023-02-05 19:19:00+00:00,251.9097,1.09,13.92,47.84626,-54.09684
2023-02-05 19:29:00+00:00,259.5448,1.1,13.92,47.84626,-54.09684
2023-02-05 19:39:00+00:00,264.5064,1.1,13.92,47.84626,-54.09684
2023-02-05 19:49:00+00:00,257.3181,1.09,13.92,47.84626,-54.09684
2023-02-05 19:59:00+00:00,256.318,1.1,13.92,47.84626,-54.09684
2023-02-05 20:09:00+00:00,267.8131,1.1,13.92,47.84626,-54.09684
2023-02-05 20:19:00+00:00,271.4314,1.08,13.21,47.84626,-54.09684
2023-02-05 20:29:00+00:00,270.7964,1.01,13.21,47.84626,-54.09684
2023-02-05 20:39:00+00:00,275.6697,1.0,13.21,47.84626,-54.09684
2023-02-05 20:49:00+00:00,279.2647,1.0,13.21,47.84626,-54.09684
2023-02-05 20:59:00+00:00,278.403,1.0,13.21,47.84626,-54.09684
2023-02-05 21:09:00+00:00,278.8713,1.0,13.21,47.84626,-54.09684
2023-02-05 21:19:00+00:00,283.4847,1.0,12.81,47.84626,-54.09684
2023-02-05 21:29:00+00:00,287.968,1.0,12.81,47.84626,-54.09684
2023-02-05 21:39:00+00:00,291.1497,1.0,12.81,47.84626,-54.09684
2023-02-05 21:49:00+00:00,298.6764,0.99,12.81,47.84626,-54.09684
2023-02-05 21:59:00+00:00,306.9797,0.98,12.81,47.84626,-54.09684
2023-02-05 22:09:00+00:00,311.9413,0.92,12.81,47.84626,-54.09684
2023-02-05 22:19:00+00:00,317.7647,0.9,12.73,47.84626,-54.09684
2023-02-05 22:29:00+00:00,326.9529,0.9,12.73,47.84626,-54.09684
2023-02-05 22:39:00+00:00,336.9697,0.89,12.73,47.84626,-54.09684
2023-02-05 22:49:00+00:00,340.3846,0.8,12.73,47.84626,-54.09684
2023-02-05 22:59:00+00:00,341.1313,0.79,12.73,47.84626,-54.09684
2023-02-05 23:09:00+00:00,348.6595,0.79,12.73,47.84626,-54.09684
2023-02-05 23:19:01+00:00,353.3397,0.73,12.73,47.84626,-54.09684
2023-02-05 23:29:01+00:00,349.4263,0.77,12.73,47.84626,-54.09684
2023-02-05 23:39:01+00:00,353.4779,0.8,12.73,47.84626,-54.09684
2023-02-05 23:49:01+00:00,356.2395,0.8,12.73,47.84626,-54.09684
2023-02-05 23:59:01+00:00,353.6346,0.8,12.73,47.84626,-54.09684
